Terminal Aerodrome Forecast
Issued by NWS

Home | Current Version | Previous Version | Text Only | Print | Product List | Glossary On
Versions: 1 2 3 4 5 6 7 8 9 10 11 12 13 14 15 16 17 18 19 20 21 22 23
000
FTUS45 KREV 261100
TAFCXP
TAF
KCXP 261120Z 2612/2712 VRB03KT P6SM FEW200
     FM262200 24008KT P6SM SCT200
     FM270200 VRB03KT P6SM BKN200=

USA.gov is the U.S. government's official web portal to all federal, state and local government web resources and services.